[[{"header":{"parameterUnit":"m.s-1","parameterCategory":1,"la1":30.2991,"la2":30.254,"lo1":-89.0895,"lo2":-89.0444,"dy":0.0017,"dx":0.0017,"nx":28,"ny":28,"refTime":"2025-08-28T21:00:00:Z","depth":0,"parameterNumber":2,"parameterNumberName":"U-component_of_WINDS"},"data":[0,0,0,0,0,0,0,0,0,0,0,0,0,0,0,0,0,0,0,0,0,0,0,0,0,0,0,0,0,0,0,0,0,0,0,0,0,0,0,0,0,0,0,0,0,0,0,0,0,0,0,0,0,0,0,0,0,0,-2.6938,-2.6937,0,-2.6866,-2.6865,-2.6864,-2.6787,-2.6786,-2.6785,-2.6784,-2.6705,-2.6704,-2.6703,0,0,0,0,0,0,0,0,0,0,0,0,0,-2.7005,-2.7004,-2.6938,-2.6937,-2.6936,-2.6866,-2.6865,-2.6864,-2.6787,-2.6786,-2.6785,-2.6783,-2.6705,-2.6704,-2.6703,0,0,0,0,0,0,0,0,0,0,0,0,0,-2.6959,-2.7004,-2.6938,-2.6889,-2.6884,-2.6866,-2.6865,-2.6864,-2.6788,-2.6786,-2.6784,-2.6783,-2.6706,-2.6704,-2.6702,-2.6725,0,0,-2.6698,-2.6697,0,0,0,0,0,0,0,0,-2.6961,-2.6956,-2.6897,-2.6893,-2.6887,-2.6834,-2.686,-2.6817,-2.6788,-2.6824,-2.6784,-2.6782,-2.6749,-2.6744,-2.6733,-2.6721,-2.6718,-2.6697,-2.6696,-2.6696,-2.6695,0,0,0,0,0,0,0,-2.6965,-2.6959,-2.6909,-2.6897,-2.689,-2.687,-2.6862,-2.6851,-2.6796,-2.6821,-2.6815,-2.6808,-2.6746,-2.6735,-2.6731,-2.6717,-2.6697,-2.6696,-2.6695,-2.6694,-2.6721,-2.6722,0,0,0,0,0,0,-2.6976,-2.6962,-2.6911,-2.6907,-2.6921,-2.687,-2.6861,-2.6853,-2.6796,-2.6786,-2.6809,-2.6805,-2.6739,-2.6733,-2.6728,-2.675,-2.6696,-2.6694,-2.6693,-2.6719,-2.6721,-2.6723,0,0,0,0,0,0,-2.6978,-2.6972,-2.6914,-2.6933,-2.6924,-2.6871,-2.6862,-2.6852,-2.6841,-2.6788,-2.6777,-2.6809,-2.6737,-2.673,-2.6727,-2.6747,-2.6693,-2.6692,-2.6717,-2.672,-2.6722,-2.6796,0,0,0,0,0,0,-2.698,-2.6973,-2.6982,-2.6934,-2.6924,-2.6916,-2.6863,-2.6852,-2.684,-2.6833,-2.6785,-2.6775,-2.6735,-2.673,-2.6725,-2.6743,-2.6691,-2.6715,-2.6718,-2.6721,-2.6791,-2.6801,-2.6809,0,0,0,0,0,-2.6982,-2.7004,-2.6982,-2.6977,-2.6933,-2.6917,-2.6911,-2.6866,-2.6842,-2.6849,-2.6815,-2.6776,-2.6746,-2.673,-2.6724,-2.6742,-2.6713,-2.6717,-2.6721,-2.6788,-2.6799,-2.6808,0,0,0,0,0,0,-2.7052,-2.6996,-2.6972,-2.6979,-2.6954,-2.6904,-2.6912,-2.688,-2.6859,-2.6853,-2.6798,-2.6788,-2.6791,-2.6767,-2.675,-2.6762,-2.6724,-2.6727,-2.6777,-2.6787,-2.6796,-2.68,-2.6689,0,0,0,0,0,-2.7069,-2.7062,-2.7013,-2.7024,-2.7013,-2.6965,-2.6956,-2.6925,-2.6896,-2.6884,-2.6849,-2.6821,-2.6805,-2.6795,-2.6778,-2.6789,-2.6777,-2.6799,-2.6807,-2.6815,-2.6817,-2.6821,-2.683,-2.6735,-2.6735,-2.6735,0,0,-2.7102,-2.7071,-2.7069,-2.7037,-2.7014,-2.7006,-2.6956,-2.695,-2.6944,-2.6882,-2.6877,-2.6852,-2.6816,-2.6821,-2.6821,-2.68,-2.6841,-2.682,-2.6826,-2.6823,-2.6826,-2.6835,-2.6843,-2.6738,-2.6737,-2.6737,0,0,-2.7159,-2.7135,-2.7141,-2.712,-2.7087,-2.7056,-2.7058,-2.7014,-2.6995,-2.699,-2.6944,-2.6936,-2.6909,-2.6886,-2.6871,-2.6924,-2.6887,-2.692,-2.6963,-2.6968,-2.6976,-2.6982,-2.6999,-2.7006,-2.6923,-2.6923,-2.6923,0,-2.7203,-2.7191,-2.7148,-2.7146,-2.7133,-2.7081,-2.7086,-2.7067,-2.7029,-2.7021,-2.7,-2.6967,-2.694,-2.6938,-2.6952,-2.6942,-2.6941,-2.6923,-2.6978,-2.6984,-2.6989,-2.7005,-2.7012,-2.6927,-2.6927,-2.6926,-2.6926,0,-2.7248,-2.7241,-2.725,-2.7217,-2.7206,-2.7207,-2.7164,-2.7157,-2.7129,-2.71,-2.7096,-2.7062,-2.7037,-2.7035,-2.7006,-2.703,-2.7018,-2.6989,-2.6949,-2.7003,-2.7017,-2.7023,-2.6933,-2.6931,-2.693,-2.6929,0,0,-2.7341,-2.7288,-2.7291,-2.7276,-2.7238,-2.7231,-2.7231,-2.7209,-2.7204,-2.7181,-2.7178,-2.716,-2.7133,-2.7117,-2.7085,-2.709,-2.7133,-2.7059,-2.7057,-2.7072,-2.7156,-2.7176,-2.7184,-2.711,-2.7111,-2.7112,-2.7158,0,-2.7389,-2.7386,-2.7349,-2.7356,-2.7349,-2.7302,-2.7302,-2.7278,-2.7252,-2.7241,-2.7212,-2.7199,-2.7166,-2.7156,-2.7159,-2.7127,-2.7148,-2.7123,-2.7105,-2.7105,-2.7112,-2.7192,-2.7212,-2.7258,-2.7164,-2.7165,-2.7165,0,-2.7442,-2.7425,-2.7433,-2.7396,-2.7391,-2.7392,-2.7369,-2.7361,-2.7333,-2.7314,-2.7298,-2.7263,-2.726,-2.7226,-2.722,-2.7204,-2.7196,-2.7179,-2.718,-2.7173,-2.7136,-2.7185,-2.7271,-2.7277,-2.7174,-2.7173,-2.7172,0,-2.7507,-2.7486,-2.7488,-2.7477,-2.7434,-2.7436,-2.7418,-2.7389,-2.7379,-2.736,-2.7353,-2.7333,-2.7321,-2.7307,-2.7268,-2.7247,-2.7266,-2.7229,-2.7248,-2.7249,-2.7251,-2.7251,-2.7334,-2.7251,-2.7251,-2.7251,-2.725,0,-2.7562,-2.7568,-2.7517,-2.7518,-2.7523,-2.7482,-2.7488,-2.7465,-2.7441,-2.7436,-2.7394,-2.739,-2.7341,-2.7331,-2.7301,-2.73,-2.7296,-2.7279,-2.727,-2.7281,-2.7283,-2.7271,-2.7266,-2.7252,-2.7252,-2.7252,-2.7251,0,-2.7634,-2.76,-2.7599,-2.756,-2.7551,-2.7557,-2.7523,-2.7522,-2.7496,-2.749,-2.7486,-2.7444,-2.7431,-2.7392,-2.7368,-2.7348,-2.7355,-2.7341,-2.7365,-2.7359,-2.738,-2.7377,-2.7456,-2.7463,-2.7379,-2.7379,-2.738,0,-2.7669,-2.7673,-2.7636,-2.7631,-2.7616,-2.7608,-2.7598,-2.7559,-2.755,-2.7521,-2.7523,-2.7508,-2.7492,-2.7473,-2.744,-2.7422,-2.7405,-2.7434,-2.7401,-2.7412,-2.7402,-2.7401,-2.7401,-2.7439,-2.7441,-2.7442,-2.7442,0,-2.7735,-2.772,-2.7708,-2.7692,-2.7682,-2.7667,-2.7649,-2.7647,-2.7603,-2.7595,-2.7583,-2.7572,-2.755,-2.7534,-2.7511,-2.7491,-2.7459,-2.7454,-2.7457,-2.7466,-2.7479,-2.747,-2.7381,-2.7451,-2.745,-2.7449,-2.7449,-2.7449,-2.7788,-2.779,-2.7765,-2.7754,-2.7737,-2.7722,-2.772,-2.7695,-2.7684,-2.7664,-2.7642,-2.7632,-2.7606,-2.7573,-2.7556,-2.7547,-2.7529,-2.7534,-2.7535,-2.7536,-2.7541,-2.7484,-2.7543,-2.7543,-2.7542,-2.7542,-2.7542,0,-2.785,-2.7833,-2.7824,-2.7801,-2.7793,-2.7768,-2.7748,-2.7742,-2.7734,-2.7714,-2.7701,-2.7687,-2.7673,-2.7641,-2.7623,-2.7622,-2.7607,-2.7619,-2.7616,-2.7612,-2.7558,-2.7556,-2.7631,-2.7631,-2.7631,-2.7631,-2.7631,-2.7631,-2.7881,-2.7882,-2.7864,-2.7857,-2.7839,-2.7831,-2.7821,-2.7808,-2.7791,-2.7778,-2.7767,-2.7747,-2.7722,-2.7703,-2.7689,-2.768,-2.7674,-2.769,-2.7676,-2.7625,-2.7616,-2.7608,-2.7605,-2.769,-2.769,-2.773,-2.773,-2.7731]},{"header":{"parameterUnit":"m.s-1","parameterCategory":1,"la1":30.2991,"la2":30.254,"lo1":-89.0895,"lo2":-89.0444,"dy":0.0017,"dx":0.0017,"nx":28,"ny":28,"refTime":"2025-08-28T21:00:00:Z","depth":0,"parameterNumber":3,"parameterNumberName":"V-component_of_WINDS"},"data":[0,0,0,0,0,0,0,0,0,0,0,0,0,0,0,0,0,0,0,0,0,0,0,0,0,0,0,0,0,0,0,0,0,0,0,0,0,0,0,0,0,0,0,0,0,0,0,0,0,0,0,0,0,0,0,0,0,0,-2.5364,-2.5364,0,-2.5378,-2.5378,-2.5378,-2.541,-2.5411,-2.5412,-2.5412,-2.5425,-2.5424,-2.5424,0,0,0,0,0,0,0,0,0,0,0,0,0,-2.536,-2.536,-2.5364,-2.5364,-2.5364,-2.5378,-2.5378,-2.5378,-2.541,-2.5411,-2.5412,-2.5413,-2.5425,-2.5424,-2.5424,0,0,0,0,0,0,0,0,0,0,0,0,0,-2.5367,-2.536,-2.5364,-2.5382,-2.5383,-2.5378,-2.5378,-2.5379,-2.541,-2.5411,-2.5412,-2.5413,-2.5425,-2.5424,-2.5424,-2.5401,0,0,-2.5423,-2.5422,0,0,0,0,0,0,0,0,-2.5367,-2.5367,-2.5379,-2.538,-2.5382,-2.5394,-2.5382,-2.5386,-2.541,-2.54,-2.5412,-2.5414,-2.5413,-2.5414,-2.5414,-2.5402,-2.5403,-2.5423,-2.5422,-2.5422,-2.5422,0,0,0,0,0,0,0,-2.5366,-2.5367,-2.5369,-2.5379,-2.5381,-2.5388,-2.539,-2.5383,-2.5401,-2.5401,-2.5403,-2.5405,-2.5414,-2.5415,-2.5415,-2.5403,-2.5423,-2.5422,-2.5422,-2.5422,-2.537,-2.5369,0,0,0,0,0,0,-2.5363,-2.5366,-2.5369,-2.537,-2.5377,-2.5387,-2.539,-2.5389,-2.5401,-2.5404,-2.5404,-2.5406,-2.5415,-2.5415,-2.5415,-2.5387,-2.5422,-2.5422,-2.5421,-2.5371,-2.5369,-2.5368,0,0,0,0,0,0,-2.5363,-2.5363,-2.5368,-2.5369,-2.537,-2.5386,-2.5385,-2.5389,-2.5389,-2.5403,-2.5406,-2.5401,-2.5416,-2.5416,-2.5404,-2.5388,-2.5422,-2.5421,-2.5372,-2.537,-2.5369,-2.5333,0,0,0,0,0,0,-2.5363,-2.5363,-2.5356,-2.5368,-2.537,-2.5358,-2.5384,-2.5388,-2.5388,-2.5392,-2.5401,-2.5404,-2.5416,-2.5405,-2.5404,-2.5388,-2.5421,-2.5374,-2.5371,-2.5369,-2.5335,-2.533,-2.5325,0,0,0,0,0,-2.5363,-2.5345,-2.5355,-2.5355,-2.5361,-2.5357,-2.5358,-2.5373,-2.5387,-2.5379,-2.5388,-2.5403,-2.5391,-2.5403,-2.5402,-2.5387,-2.5375,-2.5372,-2.537,-2.5338,-2.5331,-2.5326,0,0,0,0,0,0,-2.5329,-2.5347,-2.5358,-2.5344,-2.5349,-2.5362,-2.5352,-2.5366,-2.5366,-2.5369,-2.5388,-2.539,-2.5375,-2.538,-2.5394,-2.5364,-2.5385,-2.5382,-2.5361,-2.5355,-2.535,-2.5348,-2.542,0,0,0,0,0,-2.5321,-2.5317,-2.5332,-2.5318,-2.532,-2.5336,-2.5335,-2.5346,-2.5352,-2.5353,-2.5362,-2.5365,-2.5362,-2.5359,-2.5357,-2.5337,-2.5338,-2.5326,-2.5321,-2.5317,-2.5313,-2.53,-2.5294,-2.536,-2.536,-2.536,0,0,-2.5302,-2.5311,-2.5308,-2.5312,-2.5317,-2.5311,-2.5337,-2.5331,-2.5326,-2.5352,-2.5341,-2.5347,-2.5352,-2.5335,-2.5329,-2.5339,-2.5295,-2.5313,-2.531,-2.5309,-2.5297,-2.529,-2.5285,-2.5358,-2.5359,-2.5359,0,0,-2.5264,-2.5272,-2.526,-2.5264,-2.5272,-2.5282,-2.5279,-2.529,-2.5295,-2.5285,-2.5303,-2.5298,-2.5293,-2.5295,-2.5295,-2.5257,-2.527,-2.5256,-2.5229,-2.5216,-2.5211,-2.5206,-2.519,-2.5184,-2.5253,-2.5253,-2.5253,0,-2.524,-2.5233,-2.5252,-2.5243,-2.5243,-2.5268,-2.5254,-2.5258,-2.5264,-2.5262,-2.5275,-2.5267,-2.5273,-2.5255,-2.5246,-2.5246,-2.5241,-2.5254,-2.521,-2.5206,-2.5202,-2.5186,-2.518,-2.5251,-2.5251,-2.5251,-2.5252,0,-2.5201,-2.5196,-2.5185,-2.519,-2.5189,-2.5178,-2.5194,-2.5191,-2.5203,-2.5211,-2.5199,-2.5206,-2.5205,-2.5202,-2.5214,-2.5186,-2.5192,-2.5207,-2.5228,-2.5193,-2.5178,-2.5173,-2.5248,-2.5249,-2.5249,-2.525,0,0,-2.5141,-2.5157,-2.5152,-2.5154,-2.5163,-2.5159,-2.5149,-2.5148,-2.5143,-2.5147,-2.5137,-2.5131,-2.5145,-2.5145,-2.5157,-2.5146,-2.5112,-2.5162,-2.5163,-2.515,-2.5078,-2.5064,-2.5057,-2.5122,-2.5121,-2.512,-2.5076,0,-2.5104,-2.5087,-2.5104,-2.5083,-2.5077,-2.51,-2.5091,-2.5094,-2.5102,-2.5097,-2.5106,-2.51,-2.512,-2.512,-2.511,-2.5118,-2.5097,-2.5122,-2.511,-2.5109,-2.5105,-2.505,-2.5036,-2.4994,-2.5071,-2.507,-2.507,0,-2.5058,-2.5058,-2.5037,-2.5046,-2.5044,-2.5036,-2.5035,-2.5031,-2.5035,-2.5041,-2.5041,-2.5056,-2.5044,-2.5067,-2.505,-2.5066,-2.5062,-2.5065,-2.5064,-2.5061,-2.5085,-2.5042,-2.4981,-2.4974,-2.5061,-2.5062,-2.5063,0,-2.5012,-2.5009,-2.4995,-2.4996,-2.5007,-2.5,-2.5004,-2.5009,-2.5007,-2.5006,-2.5005,-2.5003,-2.5001,-2.4998,-2.5011,-2.5027,-2.4991,-2.5015,-2.4994,-2.4993,-2.4983,-2.4983,-2.4917,-2.4986,-2.4986,-2.4986,-2.4986,0,-2.4967,-2.4952,-2.4974,-2.4965,-2.4949,-2.4968,-2.4951,-2.4957,-2.4961,-2.4953,-2.4973,-2.4965,-2.4984,-2.4976,-2.4987,-2.4969,-2.4969,-2.4972,-2.4974,-2.4968,-2.4967,-2.4964,-2.4966,-2.4984,-2.4985,-2.4985,-2.4985,0,-2.4913,-2.4927,-2.4913,-2.4925,-2.4927,-2.4914,-2.4923,-2.4915,-2.4924,-2.4913,-2.4911,-2.4925,-2.4918,-2.4931,-2.4925,-2.4932,-2.4907,-2.4915,-2.4905,-2.4906,-2.4882,-2.4883,-2.481,-2.4799,-2.4878,-2.4877,-2.4876,0,-2.4881,-2.487,-2.4881,-2.4877,-2.4879,-2.4873,-2.4871,-2.4889,-2.4885,-2.4888,-2.4878,-2.4873,-2.4869,-2.4855,-2.4864,-2.4859,-2.4865,-2.484,-2.4865,-2.4858,-2.4861,-2.486,-2.4857,-2.4834,-2.4833,-2.4832,-2.4832,0,-2.4822,-2.483,-2.4826,-2.4824,-2.4821,-2.4821,-2.4821,-2.4817,-2.4835,-2.483,-2.4823,-2.482,-2.4813,-2.4806,-2.4803,-2.4806,-2.482,-2.4824,-2.4818,-2.481,-2.4803,-2.4803,-2.4887,-2.4825,-2.4826,-2.4826,-2.4827,-2.4827,-2.4776,-2.4767,-2.4772,-2.4766,-2.4769,-2.4769,-2.4761,-2.4769,-2.4763,-2.476,-2.4771,-2.476,-2.4763,-2.476,-2.4761,-2.4752,-2.4763,-2.4755,-2.4753,-2.475,-2.4744,-2.4808,-2.4752,-2.4752,-2.4752,-2.4753,-2.4753,0,-2.4716,-2.472,-2.4715,-2.4715,-2.4711,-2.4727,-2.4728,-2.4722,-2.4713,-2.4715,-2.471,-2.4701,-2.4694,-2.4702,-2.4696,-2.4687,-2.4693,-2.4684,-2.4683,-2.4683,-2.4737,-2.4741,-2.4679,-2.4679,-2.4679,-2.4679,-2.4679,-2.4679,-2.4683,-2.4667,-2.4675,-2.4659,-2.4664,-2.4654,-2.4653,-2.4652,-2.4653,-2.4641,-2.4636,-2.4642,-2.4645,-2.464,-2.4633,-2.4636,-2.4631,-2.4619,-2.4623,-2.4672,-2.4679,-2.4686,-2.469,-2.4618,-2.4618,-2.457,-2.4569,-2.4569]}]]